Location: La Pernelle
(49.6188°N, 1.2999°W)
Time: 03:39:50
(UTC+00:00)

NOSS 3-2 (A) - Pass Details

Date: 21 October 2021
Orbit: 771 x 1437 km, 63.4° (Epoch: 21 November)

Event Time Altitude Azimuth Distance (km) Brightness Sun altitude
Rises 20:19:40 0° 313° (NW) 3,793 7.5 -32.2°
Reaches altitude 10° 20:22:17 10° 320° (NW) 2,933 6.7 -32.6°
Enters shadow 20:28:32 45° 22° (NNE) 1,596 4.5 -33.5°
